| time (UTC) | temp F | wind direction | speed MPH | gust MPH | rain 1hr in | rain 24hr in | rain mn in | humidity % | barometer mb |
| 20260906194504 | 76 | 298 | 0.0 | 3.0 | 0.00 | 0.00 | 0.00 | 57 | 1018.9 |
| 20260906193003 | 75 | 292 | 0.0 | 3.0 | 0.00 | 0.00 | 0.00 | 57 | 1019.2 |
| 20260906191506 | 75 | 292 | 2.0 | 3.0 | 0.00 | 0.00 | 0.00 | 56 | 1019.1 |
| 20260906190001 | 75 | 20 | 1.0 | 2.0 | 0.00 | 0.00 | 0.00 | 57 | 1019.2 |
| 20260906184605 | 75 | 20 | 1.0 | 3.0 | 0.00 | 0.00 | 0.00 | 56 | 1019.4 |
| 20260906183059 | 74 | 29 | 1.0 | 3.0 | 0.00 | 0.00 | 0.00 | 58 | 1019.4 |
| 20260906181557 | 74 | 296 | 0.0 | 2.0 | 0.00 | 0.00 | 0.00 | 58 | 1019.6 |
| 20260906180110 | 74 | 296 | 2.0 | 4.0 | 0.00 | 0.00 | 0.00 | 58 | 1019.7 |
| 20260906174553 | 74 | 296 | 0.0 | 3.0 | 0.00 | 0.00 | 0.00 | 58 | 1019.7 |
| 20260906173054 | 73 | 296 | 1.0 | 3.0 | 0.00 | 0.00 | 0.00 | 59 | 1019.7 |
| 20260906171552 | 73 | 282 | 1.0 | 3.0 | 0.00 | 0.00 | 0.00 | 59 | 1020.1 |
| 20260906170055 | 72 | 284 | 2.0 | 4.0 | 0.00 | 0.00 | 0.00 | 60 | 1020.3 |
| 20260906164546 | 73 | 321 | 1.0 | 3.0 | 0.00 | 0.00 | 0.00 | 59 | 1020.1 |
| 20260906163102 | 72 | 321 | 1.0 | 3.0 | 0.00 | 0.00 | 0.00 | 60 | 1020.0 |
| 20260906161542 | 71 | 315 | 1.0 | 3.0 | 0.00 | 0.00 | 0.00 | 61 | 1020.0 |
| 20260906160040 | 71 | 311 | 1.0 | 2.0 | 0.00 | 0.00 | 0.00 | 61 | 1020.0 |
| 20260906154539 | 70 | 303 | 1.0 | 2.0 | 0.00 | 0.00 | 0.00 | 61 | 1020.0 |
| 20260906153039 | 69 | 284 | 0.0 | 2.0 | 0.00 | 0.00 | 0.00 | 62 | 1020.0 |
| 20260906151532 | 68 | 284 | 2.0 | 4.0 | 0.00 | 0.00 | 0.00 | 62 | 1019.9 |
| 20260906150028 | 68 | 306 | 0.0 | 2.0 | 0.00 | 0.00 | 0.00 | 64 | 1020.1 |
| 20260906144525 | 67 | 306 | 0.0 | 2.0 | 0.00 | 0.00 | 0.00 | 66 | 1020.1 |
| 20260906143024 | 67 | 306 | 0.0 | 1.0 | 0.00 | 0.00 | 0.00 | 67 | 1020.1 |
| 20260906141523 | 67 | 286 | 0.0 | 0.0 | 0.00 | 0.00 | 0.00 | 69 | 1020.3 |
| 20260906140020 | 65 | 286 | 0.0 | 0.0 | 0.00 | 0.00 | 0.00 | 72 | 1020.2 |
| 20260906134516 | 63 | 286 | 0.0 | 0.0 | 0.00 | 0.00 | 0.00 | 75 | 1020.0 |
| 20260906133013 | 62 | 286 | 0.0 | 3.0 | 0.00 | 0.00 | 0.00 | 76 | 1020.0 |
| 20260906131520 | 60 | 286 | 0.0 | 2.0 | 0.00 | 0.00 | 0.00 | 78 | 1019.8 |
| 20260906130009 | 59 | 286 | 0.0 | 0.0 | 0.00 | 0.00 | 0.00 | 83 | 1019.9 |
| 20260906124511 | 58 | 286 | 0.0 | 0.0 | 0.00 | 0.00 | 0.00 | 85 | 1019.8 |
| 20260906123006 | 58 | 286 | 0.0 | 0.0 | 0.00 | 0.00 | 0.00 | 84 | 1019.6 |
| 20260906121508 | 58 | 286 | 0.0 | 0.0 | 0.00 | 0.00 | 0.00 | 84 | 1019.6 |
| 20260906120007 | 57 | 286 | 0.0 | 0.0 | 0.00 | 0.00 | 0.00 | 84 | 1019.5 |
| 20260906114506 | 57 | 286 | 0.0 | 0.0 | 0.00 | 0.00 | 0.00 | 85 | 1019.4 |
| 20260906113007 | 57 | 286 | 0.0 | 0.0 | 0.00 | 0.00 | 0.00 | 85 | 1019.2 |
| 20260906111504 | 57 | 286 | 0.0 | 0.0 | 0.00 | 0.00 | 0.00 | 85 | 1019.2 |
| 20260906110005 | 57 | 286 | 0.0 | 0.0 | 0.00 | 0.00 | 0.00 | 85 | 1019.0 |
| 20260906104504 | 57 | 286 | 0.0 | 0.0 | 0.00 | 0.00 | 0.00 | 84 | 1018.9 |
| 20260906103003 | 57 | 286 | 0.0 | 0.0 | 0.00 | 0.00 | 0.00 | 85 | 1019.0 |
| 20260906101502 | 57 | 286 | 0.0 | 0.0 | 0.00 | 0.00 | 0.00 | 85 | 1018.8 |
| 20260906100002 | 57 | 286 | 0.0 | 0.0 | 0.00 | 0.00 | 0.00 | 84 | 1018.9 |
| 20260906094501 | 57 | 286 | 0.0 | 0.0 | 0.00 | 0.00 | 0.00 | 84 | 1018.9 |
| 20260906093100 | 57 | 286 | 0.0 | 0.0 | 0.00 | 0.00 | 0.00 | 84 | 1019.1 |
| 20260906090108 | 57 | 286 | 0.0 | 0.0 | 0.00 | 0.00 | 0.00 | 84 | 1019.2 |
| 20260906084559 | 57 | 286 | 0.0 | 0.0 | 0.00 | 0.00 | 0.00 | 84 | 1019.0 |
| 20260906083056 | 58 | 286 | 0.0 | 0.0 | 0.00 | 0.00 | 0.00 | 84 | 1019.2 |
| 20260906080201 | 58 | 286 | 0.0 | 0.0 | 0.00 | 0.00 | 0.00 | 84 | 1019.1 |
| 20260906074558 | 58 | 286 | 0.0 | 0.0 | 0.00 | 0.00 | 0.00 | 84 | 1019.2 |
| 20260906073050 | 58 | 286 | 0.0 | 1.0 | 0.00 | 0.00 | 0.00 | 84 | 1018.9 |
| 20260906070047 | 59 | 286 | 0.0 | 0.0 | 0.00 | 0.00 | 0.00 | 83 | 1018.8 |
| 20260906064546 | 59 | 286 | 0.0 | 0.0 | 0.00 | 0.00 | 0.00 | 83 | 1018.8 |
| 20260906063044 | 59 | 286 | 0.0 | 0.0 | 0.00 | 0.00 | 0.00 | 83 | 1018.9 |
| 20260906060054 | 60 | 286 | 0.0 | 0.0 | 0.00 | 0.00 | 0.00 | 82 | 1018.9 |
| 20260906054540 | 60 | 286 | 0.0 | 0.0 | 0.00 | 0.00 | 0.00 | 83 | 1018.6 |
| 20260906053038 | 60 | 286 | 0.0 | 0.0 | 0.00 | 0.00 | 0.00 | 82 | 1018.4 |
| 20260906050035 | 61 | 286 | 0.0 | 0.0 | 0.00 | 0.00 | 0.00 | 82 | 1018.2 |
| 20260906044535 | 61 | 286 | 0.0 | 0.0 | 0.00 | 0.00 | 0.00 | 81 | 1018.1 |
| 20260906043036 | 61 | 286 | 0.0 | 0.0 | 0.00 | 0.00 | 0.00 | 80 | 1018.1 |
| 20260906040030 | 62 | 286 | 0.0 | 0.0 | 0.00 | 0.00 | 0.00 | 80 | 1017.8 |
| 20260906034534 | 62 | 286 | 0.0 | 0.0 | 0.00 | 0.00 | 0.00 | 79 | 1017.7 |
| 20260906033032 | 62 | 286 | 0.0 | 0.0 | 0.00 | 0.00 | 0.00 | 79 | 1017.5 |
| 20260906030029 | 63 | 286 | 0.0 | 0.0 | 0.00 | 0.00 | 0.00 | 77 | 1017.5 |
| 20260906024528 | 63 | 286 | 0.0 | 0.0 | 0.00 | 0.00 | 0.00 | 77 | 1017.4 |
| 20260906023032 | 64 | 286 | 0.0 | 0.0 | 0.00 | 0.00 | 0.00 | 76 | 1017.4 |
| 20260906020030 | 64 | 286 | 0.0 | 0.0 | 0.00 | 0.00 | 0.00 | 75 | 1017.3 |
| 20260906014534 | 65 | 286 | 0.0 | 0.0 | 0.00 | 0.00 | 0.00 | 74 | 1017.1 |
| 20260906013028 | 65 | 286 | 0.0 | 0.0 | 0.00 | 0.00 | 0.00 | 73 | 1016.9 |
| 20260906010027 | 67 | 286 | 0.0 | 0.0 | 0.00 | 0.00 | 0.00 | 71 | 1016.8 |
| 20260906004527 | 68 | 286 | 0.0 | 0.0 | 0.00 | 0.00 | 0.00 | 70 | 1016.7 |
| 20260906003026 | 70 | 286 | 0.0 | 2.0 | 0.00 | 0.00 | 0.00 | 68 | 1016.6 |
| 20260906000026 | 71 | 286 | 0.0 | 1.0 | 0.00 | 0.00 | 0.00 | 64 | 1016.5 |
| 20260905234525 | 73 | 286 | 0.0 | 3.0 | 0.00 | 0.00 | 0.00 | 61 | 1016.4 |
| 20260905233024 | 73 | 286 | 3.0 | 4.0 | 0.00 | 0.00 | 0.00 | 59 | 1016.3 |
| 20260905230025 | 73 | 305 | 0.0 | 3.0 | 0.00 | 0.01 | 0.00 | 60 | 1016.3 |
| 20260905224525 | 74 | 305 | 0.0 | 2.0 | 0.00 | 0.01 | 0.00 | 59 | 1016.4 |
| 20260905223025 | 74 | 305 | 0.0 | 3.0 | 0.00 | 0.01 | 0.00 | 57 | 1016.4 |
| 20260905220023 | 74 | 287 | 0.0 | 2.0 | 0.00 | 0.01 | 0.00 | 58 | 1016.5 |
| 20260905214523 | 74 | 287 | 0.0 | 0.0 | 0.00 | 0.01 | 0.00 | 60 | 1016.6 |
| 20260905213031 | 74 | 287 | 0.0 | 1.0 | 0.00 | 0.01 | 0.00 | 58 | 1016.7 |
| 20260905210029 | 75 | 287 | 0.0 | 2.0 | 0.00 | 0.01 | 0.00 | 57 | 1016.5 |
| 20260905204523 | 75 | 287 | 0.0 | 0.0 | 0.00 | 0.01 | 0.00 | 57 | 1016.4 |
| 20260905203022 | 75 | 287 | 0.0 | 2.0 | 0.00 | 0.01 | 0.00 | 58 | 1016.7 |
| 20260905200020 | 74 | 281 | 1.0 | 3.0 | 0.00 | 0.02 | 0.00 | 58 | 1016.5 |